Carroll, IA

8:36 PM CDT on July 23, 2017 (GMT -0500)
Neu

Weather History for KCIN - June, 2013

Change the Weather History Date:

Saturday, June 1, 2013

  Actual Average Record
Temperature  
Mean Temperature 60 °F -  
Max Temperature 66 °F 77 °F 96 °F (2002)
Min Temperature 53 °F 51 °F 38 °F (1964)
Degree Days  
Heating Degree Days 6    
Growing Degree Days 10 (Base 50)    
Moisture  
Dew Point 53 °F    
Average Humidity 81    
Maximum Humidity 100    
Minimum Humidity 59    
Precipitation  
Precipitation 0.00 in - - ()
Sea Level Pressure  
Sea Level Pressure 29.75 in    
Wind  
Wind Speed 17 mph (WNW)    
Max Wind Speed 25 mph    
Max Gust Speed 31 mph    
Visibility 10 miles    
Events Rain    
Averages and records for this station are not official NWS values.
T = Trace of Precipitation, MM = Missing Value Source: NWS Daily Summary

Daily Weather History Graph

Daily Weather History Graph

Search for Another Location

Airport or City:

Trip Planner

Search our weather history database for the weather conditions in past years. The results will help you decide how hot, cold, wet, or windy it might be!

Date:

Astronomy

Jun. 01, 2013 Rise Set
Actual Time 5:45 AM CDT 8:48 PM CDT
Civil Twilight 5:12 AM CDT 9:22 PM CDT
Nautical Twilight 4:29 AM CDT 10:05 PM CDT
Astronomical Twilight 3:38 AM CDT 10:56 PM CDT
Moon 1:48 AM CDT (6/1) 2:12 PM CDT (6/1)
Length of Visible Light 16h 10m
Length of Day
15h 02m
Last Quarter, 40% of the Moon is Illuminated
Jun 1
Last Quarter
Jun 8
New
Jun 16
First Quarter
Jun 23
Full
Jun 29
Last Quarter

Hourly Weather History & Observations

Time (CDT) Temp. Dew Point Humidity Pressure Visibility Wind Dir Wind Speed Gust Speed Precip Events Conditions
12:15 AM 62.6 °F 50.0 °F 63% 29.64 in 10.0 mi WSW 18.4 mph - N/A   Clear
12:35 AM 62.6 °F 48.2 °F 59% 29.64 in 10.0 mi WSW 13.8 mph 21.9 mph N/A   Clear
12:55 AM 60.8 °F 48.2 °F 63% 29.63 in 10.0 mi WSW 19.6 mph - N/A   Clear
1:15 AM 60.8 °F 46.4 °F 59% 29.63 in 10.0 mi WSW 19.6 mph 28.8 mph N/A   Clear
1:35 AM 60.8 °F 48.2 °F 63% 29.64 in 10.0 mi WSW 18.4 mph - N/A   Clear
1:55 AM 59.0 °F 48.2 °F 67% 29.64 in 10.0 mi WSW 15.0 mph 23.0 mph N/A   Clear
2:15 AM 57.2 °F 48.2 °F 72% 29.63 in 10.0 mi WSW 16.1 mph - N/A   Clear
2:35 AM 57.2 °F 50.0 °F 77% 29.63 in 10.0 mi WSW 15.0 mph - N/A   Clear
2:55 AM 57.2 °F 50.0 °F 77% 29.64 in 10.0 mi WSW 15.0 mph - N/A   Clear
3:15 AM 57.2 °F 50.0 °F 77% 29.63 in 10.0 mi WSW 11.5 mph - N/A   Clear
3:35 AM 55.4 °F 50.0 °F 82% 29.63 in 10.0 mi WSW 10.4 mph 17.3 mph N/A   Clear
3:55 AM 55.4 °F 50.0 °F 82% 29.62 in 10.0 mi WSW 11.5 mph - N/A   Clear
4:15 AM 55.4 °F 50.0 °F 82% 29.62 in 10.0 mi WSW 9.2 mph - N/A   Clear
4:35 AM 55.4 °F 50.0 °F 82% 29.62 in 10.0 mi WSW 10.4 mph - N/A   Clear
4:55 AM 55.4 °F 50.0 °F 82% 29.62 in 10.0 mi WSW 10.4 mph - N/A   Partly Cloudy
5:15 AM 55.4 °F 50.0 °F 82% 29.63 in 10.0 mi SW 13.8 mph - N/A   Clear
5:35 AM 55.4 °F 50.0 °F 82% 29.63 in 10.0 mi SW 13.8 mph - N/A   Mostly Cloudy
5:55 AM 55.4 °F 50.0 °F 82% 29.65 in 10.0 mi WSW 13.8 mph - N/A   Overcast
6:15 AM 55.4 °F 50.0 °F 82% 29.64 in 10.0 mi WSW 16.1 mph 23.0 mph N/A   Overcast
6:35 AM 57.2 °F 50.0 °F 77% 29.64 in 10.0 mi West 17.3 mph - N/A   Overcast
6:55 AM 57.2 °F 51.8 °F 82% 29.64 in 10.0 mi West 20.7 mph 28.8 mph N/A   Overcast
7:15 AM 57.2 °F 53.6 °F 88% 29.64 in 10.0 mi West 18.4 mph - N/A   Overcast
7:35 AM 59.0 °F 53.6 °F 82% 29.65 in 10.0 mi West 17.3 mph 25.3 mph N/A   Overcast
7:55 AM 59.0 °F 53.6 °F 82% 29.65 in 10.0 mi West 20.7 mph - N/A   Mostly Cloudy
8:15 AM 59.0 °F 53.6 °F 82% 29.66 in 10.0 mi West 20.7 mph 26.5 mph N/A   Mostly Cloudy
8:35 AM 59.0 °F 53.6 °F 82% 29.67 in 10.0 mi West 19.6 mph 25.3 mph N/A   Overcast
8:55 AM 59.0 °F 55.4 °F 88% 29.67 in 10.0 mi West 20.7 mph - N/A   Overcast
9:15 AM 59.0 °F 55.4 °F 88% 29.68 in 10.0 mi West 16.1 mph - N/A   Overcast
9:35 AM 60.8 °F 55.4 °F 82% 29.68 in 10.0 mi West 20.7 mph - N/A   Overcast
9:55 AM 62.6 °F 57.2 °F 82% 29.68 in 10.0 mi West 16.1 mph 24.2 mph N/A   Overcast
10:15 AM 62.6 °F 57.2 °F 82% 29.68 in 10.0 mi West 16.1 mph - N/A   Overcast
10:35 AM 62.6 °F 55.4 °F 77% 29.68 in 10.0 mi WNW 13.8 mph 20.7 mph N/A   Overcast
10:55 AM 62.6 °F 55.4 °F 77% 29.69 in 10.0 mi WNW 13.8 mph - N/A   Overcast
11:15 AM 62.6 °F 57.2 °F 82% 29.70 in 10.0 mi West 17.3 mph - N/A   Overcast
11:35 AM 62.6 °F 55.4 °F 77% 29.71 in 10.0 mi WNW 12.7 mph 19.6 mph N/A   Overcast
11:55 AM 62.6 °F 55.4 °F 77% 29.72 in 10.0 mi West 13.8 mph - N/A   Overcast
12:15 PM 64.4 °F 55.4 °F 73% 29.73 in 10.0 mi WNW 13.8 mph 19.6 mph N/A   Overcast
12:35 PM 64.4 °F 55.4 °F 73% 29.73 in 10.0 mi WSW 15.0 mph 21.9 mph N/A   Overcast
12:55 PM 64.4 °F 55.4 °F 73% 29.74 in 10.0 mi West 16.1 mph - N/A   Overcast
1:15 PM 64.4 °F 55.4 °F 73% 29.74 in 10.0 mi West 15.0 mph - N/A   Overcast
1:35 PM 66.2 °F 57.2 °F 73% 29.74 in 10.0 mi West 13.8 mph - N/A   Overcast
1:55 PM 66.2 °F 57.2 °F 73% 29.74 in 10.0 mi West 12.7 mph - N/A   Mostly Cloudy
2:15 PM 64.4 °F 59.0 °F 83% 29.75 in 10.0 mi West 18.4 mph - N/A   Overcast
2:35 PM 66.2 °F 60.8 °F 83% 29.75 in 10.0 mi West 18.4 mph - N/A   Mostly Cloudy
2:55 PM 64.4 °F 60.8 °F 88% 29.75 in 9.0 mi West 16.1 mph - N/A   Mostly Cloudy
3:15 PM 62.6 °F 60.8 °F 94% 29.76 in 1.2 mi NW 21.9 mph 28.8 mph N/A   Light Drizzle
3:35 PM 60.8 °F 60.8 °F 100% 29.77 in 1.0 mi NW 23.0 mph 29.9 mph N/A Rain Rain
3:55 PM 60.8 °F 59.0 °F 94% 29.79 in 2.0 mi NW 18.4 mph 27.6 mph N/A   Overcast
4:15 PM 60.8 °F 59.0 °F 94% 29.80 in 6.0 mi NW 21.9 mph 29.9 mph N/A   Mostly Cloudy
4:35 PM 60.8 °F 59.0 °F 94% 29.80 in 10.0 mi NW 21.9 mph 28.8 mph N/A   Overcast
4:55 PM 60.8 °F 57.2 °F 88% 29.81 in 10.0 mi NW 17.3 mph 26.5 mph N/A   Overcast
5:15 PM 62.6 °F 57.2 °F 82% 29.82 in 10.0 mi NW 24.2 mph 31.1 mph N/A   Overcast
5:35 PM 62.6 °F 57.2 °F 82% 29.83 in 10.0 mi NW 20.7 mph 27.6 mph N/A   Overcast
5:55 PM 60.8 °F 55.4 °F 82% 29.84 in 10.0 mi NW 18.4 mph 28.8 mph N/A   Overcast
6:15 PM 60.8 °F 55.4 °F 82% 29.85 in 10.0 mi NW 21.9 mph - N/A   Overcast
6:35 PM 60.8 °F 55.4 °F 82% 29.85 in 10.0 mi NW 17.3 mph 28.8 mph N/A   Overcast
6:55 PM 59.0 °F 53.6 °F 82% 29.87 in 10.0 mi NW 17.3 mph 28.8 mph N/A   Overcast
7:15 PM 59.0 °F 53.6 °F 82% 29.88 in 10.0 mi NW 19.6 mph 27.6 mph N/A   Overcast
7:35 PM 59.0 °F 53.6 °F 82% 29.89 in 10.0 mi NW 18.4 mph 28.8 mph N/A   Overcast
7:55 PM 57.2 °F 53.6 °F 88% 29.90 in 10.0 mi NW 15.0 mph 24.2 mph N/A   Overcast
8:15 PM 57.2 °F 53.6 °F 88% 29.90 in 10.0 mi NW 16.1 mph 25.3 mph N/A   Overcast
8:35 PM 57.2 °F 51.8 °F 82% 29.91 in 10.0 mi NW 17.3 mph - N/A   Overcast
8:55 PM 57.2 °F 51.8 °F 82% 29.92 in 10.0 mi NW 25.3 mph - N/A   Overcast
9:15 PM 55.4 °F 50.0 °F 82% 29.92 in 10.0 mi NNW 19.6 mph 25.3 mph N/A   Overcast
9:35 PM 55.4 °F 50.0 °F 82% 29.93 in 10.0 mi NNW 19.6 mph 28.8 mph N/A   Overcast
9:55 PM 55.4 °F 50.0 °F 82% 29.95 in 10.0 mi NW 20.7 mph 28.8 mph N/A   Overcast
10:15 PM 55.4 °F 50.0 °F 82% 29.95 in 10.0 mi NNW 18.4 mph 25.3 mph N/A   Overcast
10:35 PM 53.6 °F 50.0 °F 88% 29.95 in 10.0 mi NNW 18.4 mph 25.3 mph N/A   Overcast
10:55 PM 53.6 °F 50.0 °F 88% 29.97 in 10.0 mi NW 13.8 mph - N/A   Overcast
11:15 PM 53.6 °F 48.2 °F 82% 29.97 in 10.0 mi NW 15.0 mph 20.7 mph N/A   Overcast
11:35 PM 53.6 °F 50.0 °F 88% 29.97 in 10.0 mi NW 16.1 mph - N/A   Overcast
11:55 PM 53.6 °F 50.0 °F 88% 29.98 in 10.0 mi NW 16.1 mph 23.0 mph N/A   Overcast